Back to catalog

THORAD AGENA D DEB

AliveSSO
NORAD 4977·DEBRIS·🇺🇸 United States

Launched Apr 8, 1970 from Vandenberg Space Force Base

Loading…

Next Passes

TLE

Source: Space-Track
1  4977U 70025GX  26223.94803355 -.00000009  00000-0  58020-4 0  9992
2  4977 100.1572   7.6288 0020764 120.5303   1.7064 13.52473534777511

Track THORAD AGENA D DEB in real time with AllMySat

Download on the App Store